Flag for U.S.A. Weather past 2 weeks in Jefferson City, Missouri, U.S.A.

Now
33 °F

Light snow. Fog.


Feels Like: 28 °F
Forecast: 30 / 36 °F
Wind: 6 mph from East

Location: Jefferson City Memorial Airport

Current Time: Dec 18, 2014 at 12:32:32 PM

Latest Report: Dec 18, 2014 at 11:53 AM


Visibility: 2 mi

Pressure: 30.23 "Hg

Humidity: 88%

Dew point: 30 °F

Location of Jefferson CityLocation

Historic Weather in Jefferson City — Graph

°F

Jefferson City temperature yesterday

Maximum temperature yesterday: 35 °F (at 11:53 AM)
Minimum temperature yesterday: 26 °F (at 3:53 AM)
Average temperature yesterday: 32 °F

Past Weeks' High & Low Weather Summary

 TemperatureHumidityPressure
High66 °F (Dec 14, 12:53 PM)100% (Dec 13, 4:53 AM)30.58 "Hg (Dec 13, 4:53 AM)
Low26 °F (Dec 17, 3:53 AM)35% (Dec 3, 4:53 PM)29.55 "Hg (Dec 15, 1:53 PM)
Average40 °F79%30.21 "Hg
* Reported Dec 3 11:53 AM — Dec 18 11:02 AM, Jefferson City, Weather by CustomWeather, © 2014

Note: Actual official high and low records may vary slightly from our data, if they occured in-between our weather recording intervals... More about our weather records

Advertising

Jefferson City weather history for previous 24 hours

 ConditionsComfort  
Time TempWeatherWind HumidityBarometerVisibility
11:02 AM
Dec 18
32 °FLight snow. Ice fog.6 mph88%30.27 "Hg2 mi
10:53 AM32 °FLight snow. Ice fog.6 mph88%30.26 "Hg2 mi
9:53 AM31 °FLight snow. Ice fog.8 mph89%30.26 "Hg1 mi
9:01 AM31 °FLight snow. Ice fog.7 mph89%30.27 "Hg2 mi
8:53 AM31 °FLight snow. Ice fog.7 mph89%30.26 "Hg2 mi
7:53 AM30 °FLight snow. Ice fog.3 mph92%30.25 "Hg2 mi
6:53 AM30 °FLight snow. Ice fog.5 mph92%30.24 "Hg4 mi
5:53 AM30 °FLight snow. Ice fog.5 mph89%30.25 "Hg2 mi
4:53 AM31 °FLight snow. Ice fog.No wind85%30.24 "Hg4 mi
3:53 AM32 °FOvercast.3 mph82%30.24 "Hg10 mi
2:53 AM32 °FLight snow. Overcast.5 mph82%30.25 "Hg8 mi
1:53 AM33 °FOvercast.5 mph75%30.26 "Hg10 mi
12:53 AM34 °FOvercast.No wind70%30.26 "Hg10 mi
11:53 PM
Dec 17
34 °FOvercast.6 mph70%30.26 "Hg10 mi
10:53 PM34 °FOvercast.3 mph70%30.28 "Hg10 mi
9:53 PM34 °FOvercast.5 mph70%30.27 "Hg10 mi
8:53 PM35 °FOvercast.5 mph64%30.28 "Hg10 mi
7:53 PM35 °FOvercast.3 mph61%30.27 "Hg10 mi
6:53 PM35 °FOvercast.5 mph61%30.26 "Hg10 mi
5:53 PM35 °FOvercast.3 mph61%30.27 "Hg10 mi
4:53 PM35 °FOvercast.5 mph56%30.26 "Hg10 mi
3:53 PM35 °FOvercast.3 mph59%30.26 "Hg10 mi
2:53 PM35 °FPartly sunny.5 mph59%30.27 "Hg10 mi
1:53 PM35 °FSunny.7 mph59%30.27 "Hg10 mi
12:53 PM35 °FSunny.8 mph56%30.30 "Hg10 mi
Weather by CustomWeather, © 2014

See weather overviewHow to use our weather pages